TITAN 3C TRANSTAGE DEB, 20760

Orbit data source: Space-Track

TITAN 3C TRANSTAGE DEB, 20760 is space debris in HEO originally from a launch on Tue, 21 Dec 1965 UTC launched from the Air Force Eastern Test Range (AFETR). Debris objects in space refer to the collection of defunct objects orbiting the Earth. Examples of debris include non-operational satellites, rocket bodies, and fragments generated from explosions, collisions, or faulty payload assembly.

Loading next visibility...
Identifier
20760, 1965-108AE
Orbit
HEO
Country
Flag of USUS
Related business
Manufacturer
Unknown
Mission
Spacecraft
Bus & Motor
Unknown
Mass
Unknown
Launch date (UTC)
1965-12-21 (60 years ago)
Launch vehicle
Unknown
Launch site
Air Force Eastern Test Range (AFETR)
Object type
Payload
Rocket body
Debris
Shape & HBR
Unknown shape, 0.2 m
Radar Cross Section
Medium (>0.1 m² and <1 m²)

Expand to show TLE details & history
Last TLE update: 2 days ago

TLE from 2 days ago
0 TITAN 3C TRANSTAGE DEB
1 20760U 65108AE  26035.06724388 -.00000162  00000-0 -59298-3 0  9996
2 20760  27.4247  20.9319 6691090 206.2340 159.0342  2.84516923147562
Epoch: 2026-02-04T01:36Z
TLE epoch observation values (Epoch: 2026-02-04T01:36:49.871Z)
Latitude
9.32065°
Longitude
-119.09431°
Altitude
28,372.571 km
Speed
1.999 km/s
True Right ascension
02h 37m 24s
True Declination
9° 18' 34"
Sunlit
Object was in daylight at epoch
Visualization orbit readout
Latitude
Unknown
Longitude
Unknown
Altitude
Unknown
Speed
Unknown
Apparent Right ascension
Unknown
Apparent Declination
Unknown
Sunlit
N/A
Visualization observer readout
Local Sidereal Time
07:37:31
Azimuth
Unknown
Elevation
Unknown
Doppler factor
Unknown
Orbital elements
Apogee altitude
28,741.757 km
Perigee altitude
584.175 km
Semi-major axis
21,041.103 km
Eccentricity
0.66911
Inclination
27.4247°
RAAN
20.9319°
Arg. of periapsis
206.234°
True anomaly
174.37094°
Mean anomaly
159.0342°
Eccentric anomaly
167.3983°
Mean motion
0.71112 °/min
Orbital period
506.25 mins
BSTAR
-0.00059298
Loading maneuver chart data...
Computing Atmospheric mass density...

Documentation

Showing up to 5 results
|